Location: Saint-Sernin
(44.5721°N, 4.3916°E)
Time: 05:33:27
(UTC+00:00)

Daily predictions for brighter satellites

Satellite Brightness Start Highest point End
(mag) Time Altitude Azimuth Time Altitude Azimuth Time Altitude Azimuth
Resurs 1-4 Rocket 4.2 00:50:59 10° NNE 00:53:02 22° NE 00:53:02 22° NE
ATLAS 5 CENTAUR R/B 4.4 01:10:13 15° NE 01:10:13 15° NE 01:11:08 10° NE
CZ-2D R/B 3.9 01:12:39 10° NNE 01:15:14 28° NNE 01:15:14 28° NNE
Cosmos 2082 Rocket 3.8 01:13:23 10° NNW 01:16:33 30° N 01:16:33 30° N
Lacrosse 5 4.0 01:26:32 22° N 01:26:32 22° N 01:29:22 10° NE
SJ 16-02 4.1 01:32:16 10° N 01:33:15 15° N 01:33:15 15° N
SL-16 R/B 3.7 01:46:31 32° NNW 01:46:31 32° NNW 01:49:46 10° NNW
Lacrosse 5 rocket 4.0 01:56:02 16° NNE 01:56:02 16° NNE 01:58:45 10° NE
Cosmos 2278 Rocket 3.1 02:01:41 41° N 02:01:41 41° N 02:05:38 10° NNE
Cosmos 1634 Rocket 4.1 01:59:15 10° N 02:04:52 71° N 02:04:52 71° N
ARIANE 5 R/B 3.1 02:08:55 10° NNE 02:13:12 54° ENE 02:13:12 54° ENE
BREEZE-M DEB (TANK) 3.5 02:22:43 81° S 02:22:50 82° SSE 02:36:21 10° ENE
USA 238 DEB 4.0 02:22:13 49° SSE 02:23:15 53° ESE 02:29:55 10° NE
USA 238 4.0 02:22:19 49° SSE 02:23:22 53° ESE 02:30:03 10° NE
Cosmos 1763 Rocket 3.9 02:24:48 61° N 02:24:48 61° N 02:29:11 10° NNE
SME Rocket 4.1 02:20:04 10° NNE 02:27:31 62° WNW 02:27:31 62° WNW
ADEOS II 2.1 02:25:23 10° NNE 02:30:14 75° NNE 02:30:14 75° NNE
Cosmos 540 Rocket 3.9 02:30:43 52° ESE 02:30:52 53° ESE 02:35:53 10° NNE
Resurs 1-4 Rocket 3.5 02:31:01 10° N 02:34:06 26° NW 02:34:06 26° NW
Cosmos 1814 Rocket 3.9 02:40:08 79° E 02:40:08 79° E 02:45:11 10° NNE
Cosmos 1943 Rocket 3.5 02:39:34 24° SSE 02:41:49 33° ESE 02:46:43 10° NE
CZ-2C R/B 3.7 02:41:09 10° NNE 02:44:24 49° NE 02:44:24 49° NE
Atlas Centaur 2 4.1 02:46:21 23° SSE 02:46:42 23° SSE 02:52:32 10° ESE
SeaSat 1 3.7 02:43:08 10° NE 02:47:39 35° ESE 02:49:25 27° SSE
Cosmos 2150 Rocket 4.2 02:44:43 10° NNW 02:50:12 74° ENE 02:55:40 10° SSE
ATLAS 5 CENTAUR R/B 3.2 02:51:45 25° NNW 02:51:45 25° NNW 02:55:37 10° NNE
Cosmos 2208 Rocket 4.2 02:55:52 55° WNW 02:55:52 55° WNW 03:00:59 10° NNE
CZ-4B R/B 4.3 02:59:19 11° NNW 02:59:19 11° NNW 02:59:29 10° NNW
CZ-2D R/B 3.7 02:53:36 10° NNW 02:56:33 20° NW 02:56:33 20° NW
BREEZE-M DEB (TANK) 4.2 02:53:12 37° SW 02:58:44 74° SSE 03:03:33 10° ENE
Cosmos 372 Rocket 4.0 02:56:31 10° NNW 03:01:47 81° ENE 03:06:58 10° SSE
Cosmos 2082 Rocket 4.4 02:57:51 10° NW 02:58:19 12° NW 02:58:19 12° NW
Spot 4 Rocket 4.0 02:57:55 10° N 03:02:59 59° WNW 03:03:11 59° W
Cosmos 2297 3.8 03:03:04 51° W 03:03:36 53° WNW 03:09:11 10° NNE
Cosmos 1869 Rocket 3.9 02:59:36 10° N 03:04:05 65° E 03:06:55 22° SSE
Cosmos 2298 Rocket 3.9 02:58:57 10° NNW 03:04:18 78° WSW 03:09:35 10° SSE
USA 215 3.9 02:58:46 10° ENE 03:05:01 46° SE 03:08:19 27° S
Falcon 9 debris 4.0 03:06:56 47° NNE 03:06:56 47° NNE 03:09:36 10° NE
SL-4 R/B 3.4 03:08:45 24° N 03:09:16 25° N 03:12:18 10° ENE
Lacrosse 5 4.0 03:05:52 10° NW 03:09:42 21° N 03:13:32 10° ENE
Cosmos 2228 Rocket 3.4 03:10:44 52° WNW 03:10:44 52° WNW 03:14:46 10° N
NOSS 3-2 (A) 3.3 03:08:36 46° SSW 03:10:29 85° ESE 03:17:00 10° NE
Cosmos 841 Rocket 3.5 03:10:34 54° W 03:11:00 56° WNW 03:16:09 10° NNE
NOSS 3-2 (C) 3.8 03:08:29 32° S 03:11:06 59° ESE 03:17:27 10° NE
IRIDIUM 104 4.2 03:11:31 54° SW 03:12:35 68° W 03:17:47 10° N
Unknown 3.6 03:16:35 58° N 03:16:35 58° N 03:19:46 10° NE
Cosmos 1606 3.3 03:18:32 43° NW 03:18:32 43° NW 03:21:34 10° N
Meteor 1-20 Rocket 4.0 03:16:16 10° NNW 03:21:43 72° W 03:27:12 10° S
IRIDIUM 114 4.4 03:20:39 47° SW 03:21:45 56° W 03:26:54 10° N
Cosmos 2084 3.8 03:22:16 47° WNW 03:22:47 50° NW 03:27:08 10° NNE
ATLAS 3B R/B 3.2 03:18:38 20° S 03:23:12 54° ESE 03:29:35 10° NE
Cosmos 2369 Rocket 2.5 03:20:01 24° S 03:23:28 66° ESE 03:29:06 10° NNE
ADEOS 3.8 03:19:07 10° NNE 03:24:20 69° ESE 03:28:31 16° S
PSLV R/B 4.1 03:23:14 10° SSE 03:27:22 74° ENE 03:31:31 10° N
Unknown 3.2 03:28:08 67° SSW 03:28:33 78° SE 03:32:17 10° ENE
Cosmos 1782 2.7 03:27:49 43° S 03:29:03 89° ESE 03:33:02 10° N
ISS -3.0 03:32:39 38° SSE 03:32:39 38° SSE 03:35:00 10° SE
Lacrosse 5 rocket 2.6 03:32:04 10° NW 03:36:04 42° NNE 03:40:16 10° ESE
USA 267 4.1 03:33:28 10° E 03:39:43 50° NNE 03:45:58 10° NW
Cosmos 1400 Rocket 3.6 03:37:08 10° S 03:40:56 51° E 03:44:43 10° NNE
BREEZE-M DEB (TANK) 4.4 03:29:49 10° WNW 03:41:51 58° N 03:45:32 10° E
Iridium 4 Rocket 3.3 03:39:01 10° S 03:43:46 76° E 03:48:11 10° N
FALCON 9 DEB 4.0 03:43:23 34° WNW 03:44:11 40° NNW 03:47:33 10° NE
Spot 2 4.2 03:40:03 10° N 03:44:45 61° WNW 03:47:04 27° SW
Cosmos 2278 Rocket 4.3 03:43:32 10° WNW 03:45:27 12° NW 03:47:39 10° NNW
Cosmos 1602 3.6 03:42:43 10° NNW 03:46:39 70° W 03:50:33 10° S
Cosmos 2344 3.6 03:43:01 25° SW 03:47:43 66° NW 03:56:02 10° NE
Cosmos 1461 3.1 03:46:07 10° NNW 03:50:09 70° NE 03:54:17 10° SE
Meteor 1-28 Rocket 4.5 03:52:13 23° WNW 03:52:13 23° WNW 03:54:24 10° NW
Unknown 4.4 03:49:10 22° SSW 03:51:28 44° SE 03:55:26 10° ENE
ARIANE 5 R/B 4.0 03:49:05 10° NNW 03:52:38 19° WNW 03:53:31 18° WNW
GPS 2-04 Rocket1 4.4 03:54:16 18° SSW 03:54:34 18° SSW 03:57:25 10° SSE
Unknown 4.5 03:52:07 20° SSW 03:54:37 43° SE 03:58:34 10° ENE
Unknown 4.4 03:55:32 24° WNW 03:56:51 32° NNW 04:00:00 10° NE
Unknown 4.4 03:55:19 19° SSW 03:57:56 46° SE 04:01:55 10° ENE
Meteor 1-14 Rocket 4.4 03:53:08 10° NNW 03:58:25 47° W 04:03:40 10° SSW
Cosmos 1092 Rocket 3.9 03:52:22 10° SSW 03:58:27 70° W 04:04:37 10° N
Cosmos 1812 4.2 03:55:14 10° SSE 03:58:51 39° E 04:02:29 10° NNE
Unknown 4.4 03:56:53 19° SSW 03:59:34 47° SE 04:03:34 10° ENE
Unknown 4.3 03:58:28 19° SSW 04:01:13 48° SE 04:05:12 10° ENE
Unknown 3.4 04:00:46 27° WSW 04:02:48 87° NNW 04:06:43 10° NE
Unknown 4.3 04:00:04 18° SSW 04:02:52 50° SE 04:06:53 10° ENE
IDEFIX/ARIANE 42P 2.6 03:59:45 10° N 04:04:58 62° WNW 04:10:08 10° SSW
Unknown 4.0 04:02:55 19° SW 04:05:39 58° SE 04:09:41 10° ENE
Unknown 4.2 04:03:18 18° SSW 04:06:13 54° SE 04:10:15 10° ENE
Unknown 3.9 04:05:17 19° SW 04:08:08 63° SE 04:12:15 10° ENE
Meteor 1-31 Rocket 3.6 04:04:26 10° NNE 04:08:18 53° E 04:12:06 10° S
CENTAUR R/B 2.5 04:03:41 14° SW 04:08:52 85° NW 04:15:55 10° NE
Cosmos 1707 Rocket 3.9 04:05:40 16° SW 04:09:00 44° WNW 04:13:15 10° N
ADEOS II 3.8 04:06:47 10° NNW 04:09:40 15° WNW 04:11:10 13° WNW
Unknown 3.9 04:06:48 18° SW 04:09:45 63° SE 04:13:51 10° ENE
Unknown 4.0 04:07:14 17° SW 04:10:15 60° SE 04:14:21 10° ENE
Unknown 3.6 04:08:12 20° SW 04:10:56 75° SE 04:14:59 10° ENE
CZ-4B R/B 4.3 04:09:02 10° NNE 04:12:43 56° E 04:16:19 10° S
Unknown 4.0 04:09:42 16° SW 04:12:51 61° SE 04:16:56 10° ENE
Cosmos 44 3.8 04:08:44 10° SSW 04:13:47 63° ESE 04:18:34 10° NE
USA 238 DEB 4.4 04:09:41 17° W 04:14:25 40° NW 04:20:57 10° NNE
USA 238 4.3 04:09:46 17° WSW 04:14:32 40° NW 04:21:05 10° NNE
Cosmos 1346 Rocket 4.0 04:11:07 10° N 04:15:06 48° ENE 04:19:03 10° SSE
Unknown 3.9 04:12:54 15° SW 04:16:10 64° SE 04:20:17 10° ENE
SJ-6F 4.5 04:12:04 10° NNE 04:16:16 89° ESE 04:20:27 10° SSW
BREEZE-M DEB (TANK) 2.7 04:12:41 17° WSW 04:16:37 84° NNW 04:19:12 10° ENE
Unknown 3.6 04:14:40 20° WSW 04:17:09 62° NNW 04:20:58 10° NE
Unknown 3.9 04:14:28 15° SW 04:17:48 66° SE 04:21:55 10° ENE
Cosmos 482 Debris 4.4 04:17:14 23° WSW 04:17:58 27° SW 04:20:57 10° SSE
H-2A R/B 2.6 04:15:14 10° N 04:18:55 43° WNW 04:22:31 10° SW
Cosmos 1125 Rocket 4.0 04:14:13 10° NW 04:19:06 37° WSW 04:23:56 10° SSW
PAYLOAD A 3.8 04:14:19 10° NNE 04:19:10 82° WNW 04:23:52 10° SSW
Unknown 3.8 04:16:05 15° SW 04:19:28 68° SE 04:23:35 10° ENE
Unknown 3.8 04:17:42 14° SW 04:21:09 70° SE 04:25:17 10° ENE
USA 81 4.0 04:16:39 10° S 04:21:55 73° W 04:27:13 10° N
Cosmos 1733 Rocket 3.1 04:17:45 10° NNW 04:22:09 60° W 04:26:32 10° S
Cosmos 2263 4.3 04:18:21 10° SW 04:23:53 60° WNW 04:29:27 10° NNE
SeaSat 1 3.2 04:20:39 10° NNE 04:25:09 36° NW 04:29:13 12° WSW
Cosmos 1943 Rocket 2.8 04:21:08 14° WSW 04:25:27 38° NW 04:30:38 10° NNE
PSLV R/B 4.4 04:21:51 10° N 04:25:45 32° WNW 04:29:37 10° SW
Meteor 1-5 Rocket 4.1 04:20:41 10° NNW 04:26:04 76° W 04:31:36 10° S
Unknown 3.7 04:24:05 13° SW 04:27:47 79° SE 04:31:56 10° ENE
Unknown 3.7 04:25:42 12° SW 04:29:27 81° SE 04:33:36 10° ENE
CZ-3 R/B 4.2 04:01:50 12° W 04:29:57 38° SSW 04:39:15 10° SE
Unknown 3.7 04:27:17 12° SW 04:31:06 83° SE 04:35:16 10° ENE
Unknown 3.6 04:28:52 12° SW 04:32:45 85° SE 04:36:55 10° ENE
COSMOS 2487 2.7 04:30:12 10° NNW 04:33:32 44° WSW 04:36:51 10° S
Unknown 3.6 04:30:30 11° SW 04:34:26 87° SE 04:38:36 10° ENE
CZ-2C R/B 2.4 04:30:11 10° N 04:34:59 72° WNW 04:39:56 10° SSW
Atlas Centaur 2 4.1 04:29:00 10° SW 04:35:13 28° S 04:42:04 10° SE
Aureole 2 Rocket 3.5 04:32:57 10° S 04:35:30 36° ESE 04:38:00 10° NE
Cosmos 1484 Rocket 4.0 04:33:45 10° NNE 04:37:24 44° E 04:40:59 10° S
Unknown 3.6 04:33:39 10° SW 04:37:43 89° NW 04:41:54 10° ENE
ATLAS 5 CENTAUR R/B 4.4 04:37:31 10° NNW 04:38:09 10° N 04:38:47 10° N
Starlink (trailer) 3.6 04:35:16 10° WSW 04:39:24 86° NW 04:43:34 10° NE
Timation 2 Rocket 3.9 04:34:42 10° NNW 04:40:47 85° WSW 04:46:45 10° SSE
Unknown 3.6 04:36:55 10° WSW 04:41:03 84° NW 04:45:14 10° NE
Cosmos 1553 Rocket 4.0 04:36:26 10° NNW 04:42:43 71° W 04:48:50 10° S
Unknown 3.6 04:38:35 10° WSW 04:42:44 82° NW 04:46:54 10° NE
Cosmos 1666 3.7 04:40:27 10° N 04:44:08 52° E 04:47:47 10° SSE
SKYMED 2 4.0 04:42:53 10° SSE 04:47:12 71° ENE 04:51:32 10° N
Cosmos 2242 Rocket 3.7 04:42:53 10° SSW 04:47:23 61° W 04:51:53 10° N
Meteor 1-27 Rocket 3.8 04:41:31 10° SSW 04:47:24 69° WNW 04:53:14 10° N
USA 215 3.5 04:41:44 10° NE 04:48:10 62° NNW 04:54:35 10° WSW
Helios 1A Rocket 3.8 04:44:35 10° NNE 04:48:35 55° E 04:52:35 10° S
SL-4 R/B 2.3 04:45:52 10° NW 04:49:20 57° NNE 04:53:00 10° ESE
Unknown 3.7 04:45:16 10° WSW 04:49:24 75° NNW 04:53:33 10° NE
Cosmos 1782 Rocket 4.3 04:46:00 10° N 04:50:19 60° E 04:54:38 10° SSE
Unknown 3.7 04:46:53 10° WSW 04:51:00 73° NNW 04:55:10 10° NE
Unknown 3.7 04:47:47 10° WSW 04:51:55 71° NNW 04:56:04 10° NE
Lacrosse 5 3.1 04:49:01 10° NW 04:53:51 41° NNE 04:58:39 10° E
Cosmos 1315 Rocket 3.0 04:49:53 10° SSW 04:53:56 57° WNW 04:58:01 10° N
Unknown 3.7 04:50:16 10° WSW 04:54:23 69° NNW 04:58:32 10° NE
Meteor PRIRODA 3.6 04:50:46 10° N 04:54:24 63° WNW 04:58:02 10° SSW
Cosmos 773 Rocket 4.0 04:49:51 10° SSW 04:55:03 82° WNW 05:00:15 10° NNE
Unknown 3.8 04:52:02 10° WSW 04:56:10 65° NNW 05:00:17 10° NE
Meteor 1-11 Rocket 4.0 04:52:02 10° NNW 04:57:26 46° W 05:02:40 10° SSW
Cosmos 1655 Rocket 4.0 04:52:10 10° SSW 04:58:21 69° W 05:04:37 10° N
